sat.trackr.live / text

‹ back to catalog

STARLINK-11299 [DTC]

NORAD 61058 · 2024-164J

PAYLOAD ACTIVE UNKNOWN

§ Identity

Operator
Country
US
Launch date
2024-09-13
Launch site
AFWTR
Launch vehicle
Mass (kg)
RCS (m²)

Purposes: comms

External: N2YO · Heavens-Above · Gunter

§ Orbital elements

Epoch: 2026-09-21T17:17:05.905536Z

Period
91.74 min
Inclination
53.1601°
Eccentricity
0.0000924
Mean motion
15.69705319 rev/d
Perigee alt
359.1 km
Apogee alt
360.4 km
Semi-major
6,737.9 km
B*
1.8228e-6
RAAN
65.2072°
Arg perigee
92.3897°
Mean anomaly
267.7227°
Rev number
11,620

§ Raw data

STARLINK-11299 [DTC]1 61058U 24164J   26264.72020724 -.00000367  00000+0  18228-5 0  99932 61058  53.1601  65.2072 0000924  92.3897 267.7227 15.69705319116202

JSON: /api/v1/satellites/61058 · /tle

For live sub-satellite position, see the globe view (requires WebGL).

§ Visibility from observer

Set your observer location to see the next 7 days of passes ≥ 10°. The values pass through the URL so the page stays shareable.

No JS? Fill the form by hand. The geolocation button needs JavaScript.